Location: Sobotiste
(48.7170°N, 17.4000°E)
Time: 09:48:48
(UTC+02:00)

CAS-6 - Pass Details

Date: 14 March 2026
Orbit: 601 x 618 km, 97.8° (Epoch: 18 April)

Event Time Altitude Azimuth Distance (km) Brightness Sun altitude
Exits shadow 20:32:16 14° 23° (NNE) 1,727 ? -25.9°
Drops below altitude 10° 20:33:04 10° 15° (NNE) 1,957 ? -26.1°
Sets 20:35:41 0° 359° (N) 2,867 ? -26.4°
